Tracking 20753 objects as of 7-Jun-2020
HD Live streaming from Space Station
objects crossing your sky now
Track the most recent launched group of Starlink satellites

GORIZONT 32

Track GORIZONT 32 now!
GORIZONT 32 is classified as:


NORAD ID: 23880
Int'l Code: 1996-034A
Perigee: 35,759.7 km
Apogee: 35,861.8 km
Inclination: 14.4 °
Period: 1,437.0 minutes
Semi major axis: 42181 km
RCS: 17.7827 m2 (large)
Launch date: May 25, 1996
Source: Commonwealth of Independent States (former USSR) (CIS)
Launch site: TYURATAM MISSILE AND SPACE COMPLEX (TTMTR)

Telecommunications; augment television channels available to the people of Siberia.
aabbcc
Your satellite tracking list
Your tracking list is empty




NASA's NSSDC Master Catalog

Two Line Element Set (TLE):
1 23880U 96034A   20158.56669373 -.00000283 +00000-0 +00000-0 0  9998
2 23880 014.4203 012.2732 0012107 330.6804 261.8564 01.00211082087999
Source of the keplerian elements: AFSPC